Tracking 19709 objects as of 20-Jun-2019
HD Live streaming from Space Station
objects crossing your sky now

SKYSAT C13

Track SKYSAT C13 now!
10-day predictions


NORAD ID: 43802
Int'l Code: 2018-099AW
Perigee: 499.7 km
Apogee: 505.8 km
Inclination: 97.4 °
Period: 94.5 minutes
Semi major axis: 6873 km
RCS: Unknown
Launch date: December 3, 2018
Source: United States (US)
Launch site: AIR FORCE WESTERN TEST RANGE (AFWTR)
aabbcc
Your satellite tracking list
Your tracking list is empty




NASA's NSSDC Master Catalog

Two Line Element Set (TLE):
1 43802U 18099AW  19170.18706662  .00000294  00000-0  15289-4 0  9992
2 43802  97.4033 242.5628 0004493 206.0045 154.0967 15.23395222 29468
Source of the keplerian elements: AFSPC